Regional Weather Roundup
Issued by NWS

Home | Current Version | Previous Version | Graphics & Text | Print | Product List | Glossary On
Versions: 1 2 3 4 5 6 7 8 9 10 11 12 13 14 15 16 17 18 19 20 21 22 23 24 25 26 27 28 29 30 31 32 33 34 35 36 37 38 39 40 41 42 43 44 45 46 47 48 49 50
000
ASUS43 KLOT 180010
RWRIL

ILLINOIS REGIONAL WEATHER ROUNDUP
NATIONAL WEATHER SERVICE CHICAGO/ROMEOVILLE IL
700 PM CDT WED SEP 17 2014

NOTE: "FAIR" INDICATES FEW OR NO CLOUDS BELOW 12,000 FEET WITH NO
SIGNIFICANT WEATHER AND/OR OBSTRUCTIONS TO VISIBILITY.

* THESE STATIONS ARE NOT UNDER NWS QUALITY CONTROL. THEY ALSO MAY NOT
  REPORT WEATHER SUCH AS PRECIPITATION OR FOG.

ILZ001-002-007-009-015-016-024-180100-
NORTHWEST ILLINOIS

CITY           SKY/WX    TMP DP  RH WIND       PRES   REMARKS
MOLINE         CLEAR     63  53  70 CALM      29.96R
6HR MIN TEMP:  63; 6HR MAX TEMP:  71;

STERLING*      CLEAR     63  52  67 CALM      29.97R
SAVANNA*       CLEAR     67  51  57 CALM      29.97R
$$

ILZ003-004-008-010-011-017-018-180100-
NORTH CENTRAL ILLINOIS

CITY           SKY/WX    TMP DP  RH WIND       PRES   REMARKS
ROCKFORD       PTCLDY    66  51  58 CALM      29.99R
6HR MIN TEMP:  66; 6HR MAX TEMP:  72;

FREEPORT*      CLEAR     64  53  69 NW3       30.00R
ROCHELLE*      CLEAR     64  52  65 N3        29.98S
DE KALB*       CLEAR     60  51  70 NE3       29.99R
PERU*          CLEAR     65  52  63 CALM      29.98S
$$

ILZ005-006-012>014-019>023-180100-
NORTHEAST ILLINOIS

CITY           SKY/WX    TMP DP  RH WIND       PRES   REMARKS
CHICAGO-OHARE  CLEAR     66  46  48 E8        29.98R
6HR MIN TEMP:  66; 6HR MAX TEMP:  70;

CHICAGO-MIDWAY CLEAR     65  48  54 E10       29.98R
6HR MIN TEMP:  65; 6HR MAX TEMP:  72;

AURORA         CLEAR     65  49  56 CALM      29.98R
6HR MIN TEMP:  65; 6HR MAX TEMP:  72;

LANSING*       CLEAR     62  49  63 NE6       29.98R
JOLIET*        CLEAR     62  50  65 CALM      29.98R
WAUKEGAN       CLEAR     59  48  67 SE3       29.98R
6HR MIN TEMP:  59; 6HR MAX TEMP:  68;

DUPAGE AIRPORT CLEAR     65  49  56 CALM      29.97S
6HR MIN TEMP:  65; 6HR MAX TEMP:  73;

KANKAKEE*      CLEAR     61  52  72 CALM      29.97S
WHEELING       CLEAR     63  47  55 E3        30.00R
6HR MIN TEMP:  63; 6HR MAX TEMP:  71;

MORRIS*        CLEAR     64  51  63 CALM      29.97R
ROMEOVILLE*    CLEAR     64  49  57 CALM      29.98R
NORTHERLY ISL    N/A     62  50  64 E8          N/A
$$

LMZ740>746-180100-
SOUTHERN LAKE MICHIGAN

STATION/POSITION SKY/WX   TEMP    WIND        PRES    VSBY  WAVE
                          AIR SEA DIR/SP/G                  HT/PER
                          (F)     (DEG/KT/KT) (MB)    (MI)  (FT/S)
SOUTHERN BUOY              62 63  150/  4/  6 1015.8R         1
WAUKEGAN HARBOR            62     160/  7/  7   N/A
HARRISON CRIB              62      90/ 11/ 12   N/A
BURNHAM HARBOR             62      90/  5/  9   N/A
CALUMET HARBOR             63      60/  7/  9 1014.2R
MICHIGAN CITY              62      40/ 10/ 12   N/A
MICHIGAN CITY 6N           63 65   70/ 10/ 12   N/A           1/ 2
ST. JOSEPH                 63 66   50/  6/  8   N/A           0
$$

ILZ025>027-034>036-040-047-049-050-058-095>099-180100-
WEST-CENTRAL ILLINOIS

CITY           SKY/WX    TMP DP  RH WIND       PRES   REMARKS
QUINCY         CLOUDY    65  57  75 SE7       29.96R
GALESBURG*     CLEAR     64  55  71 CALM      29.97R
MACOMB*        PTCLDY    64  55  74 E3        29.98R
JACKSONVILLE*  CLEAR     63  56  77 S6        29.98R
PITTSFIELD*    CLOUDY    62  56  79 SE3       29.99R
$$

ILZ028>032-037-038-041>044-048-051>054-059>061-180100-
CENTRAL ILLINOIS

CITY           SKY/WX    TMP DP  RH WIND       PRES   REMARKS
PONTIAC        CLEAR     63  54  72 CALM      29.97R
DECATUR        CLEAR     63  52  67 SE6       29.97R
PEORIA         MOCLDY    64  53  67 CALM      29.97R
6HR MIN TEMP:  64; 6HR MAX TEMP:  70;

LACON*         CLEAR     61  55  81 CALM      29.97R
LINCOLN*       CLOUDY    65  53  63 CALM      29.94S
SPRINGFIELD    PTCLDY    62  52  69 S6        29.97R
6HR MIN TEMP:  62; 6HR MAX TEMP:  68;

TAYLORVILLE    CLEAR     55  54  94 S5        29.98R
$$

ILZ033-039-045-046-055>057-062-063-180100-
EAST-CENTRAL ILLINOIS

CITY           SKY/WX    TMP DP  RH WIND       PRES   REMARKS
CHAMPAIGN      CLOUDY    63  52  67 SE3       29.96F
DANVILLE*      CLOUDY    63  52  67 CALM      29.94S
RANTOUL*       CLOUDY    67  52  58 CALM      29.97S
MATTOON        CLEAR     60  55  83 CALM      29.97R
PARIS*         PTCLDY    60  54  78 CALM      29.98R
$$

ILZ079-100>102-180100-
SOUTHWEST ILLINOIS

CITY           SKY/WX    TMP DP  RH WIND       PRES   REMARKS
ALTON          CLOUDY    61  55  82 E7        29.97R
BELLEVILLE     CLOUDY    63  58  85 N5        29.96R
CAHOKIA*       CLOUDY    64  57  78 E3        29.96R
SPARTA*        CLOUDY    64  59  84 SW6       29.97R
$$

ILZ064>066-069>071-074>076-080>082-084>086-088>090-092>094-180100-
SOUTH-CENTRAL ILLINOIS

CITY           SKY/WX    TMP DP  RH WIND       PRES   REMARKS
CARBONDALE     CLOUDY    65  56  72 S6        29.96S
6HR MIN TEMP:  65; 6HR MAX TEMP:  71;

CAIRO*         MOCLDY    68  60  76 CALM      29.95F
EFFINGHAM*     CLOUDY    59  56  89 CALM      29.98S FOG
MARION         CLOUDY    68  55  64 SW5       29.97R
MT. VERNON     CLOUDY    63  55  77 CALM      29.97S
CENTRALIA*     CLOUDY    62  54  73 CALM      29.96S
SALEM*         CLOUDY    64  58  82 CALM      29.97R
METROPOLIS*    CLOUDY    67  61  82 CALM      29.96R
$$

ILZ067-068-072-073-078-083-087-091-180100-
SOUTHEAST ILLINOIS

CITY           SKY/WX    TMP DP  RH WIND       PRES   REMARKS
LAWRENCEVILLE  MOCLDY    61  58  90 E7        29.96S
FAIRFIELD*     CLOUDY   N/A N/A N/A CALM      29.96S
HARRISBURG*    CLOUDY    67  55  66 CALM      29.97S
ROBINSON*      MOCLDY    60  58  91 E3        29.96F
CARMI*         MOCLDY    66  60  81 CALM      29.96S
$$

ABBREVIATIONS USED IN REMARKS
   TC - TEMPERATURE IN CELSIUS
  WCI - WIND CHILL INDEX
   HX - HEAT INDEX
  VSB - VISIBILITY
$$



USA.gov is the U.S. government's official web portal to all federal, state and local government web resources and services.